FENGYUN 1C DEB, 37081

Orbit data source: Space-Track

FENGYUN 1C DEB, 37081 is space debris in SSO originally from a launch on Mon, 10 May 1999 UTC launched from the Taiyaun Space Center, China (TSC). Fengyun 1C debris stems from the Chinese weather satellite Fengyun-1C, which was intentionally destroyed by a Chinese anti-satellite missile in 2007. This event dramatically increased the amount of space debris, with thousands of trackable fragments posing hazards to satellites and human spaceflight. The Fengyun 1C debris cloud has become a focal point in discussions about space sustainability and the need for international regulations to prevent the creation of new debris.

Loading next visibility...
Identifier
37081, 1999-025EFR
Orbit
SSO
Country
Flag of CNCN / PRC
Related business
Manufacturer
Unknown
Mission
Spacecraft
Bus & Motor
Unknown
Mass
Unknown
Launch date (UTC)
1999-05-10 (27 years ago)
Launch vehicle
Unknown
Launch site
Taiyaun Space Center, China (TSC)
Object type
Payload
Rocket body
Debris
Shape & HBR
Unknown shape, 0.1 m
Radar Cross Section
Small (<0.1 m²)

Expand to show TLE details & history
Last TLE update: 21 hours ago

TLE from 21 hours ago
0 FENGYUN 1C DEB
1 37081U 99025EFR 26145.68120678  .00016026  00000-0  54816-2 0  9991
2 37081  98.6917 299.5641 0255228 238.0073 119.6069 14.19623021608964
Epoch: 2026-05-25T16:20Z
TLE epoch observation values (Epoch: 2026-05-25T16:20:56.265Z)
Latitude
-0.00011°
Longitude
171.06417°
Altitude
923.89 km
Speed
7.341 km/s
True Right ascension
19h 58m 15s
True Declination
0° 00' 00"
Sunlit
Object was in full shadow at epoch
Visualization orbit readout
Latitude
Unknown
Longitude
Unknown
Altitude
Unknown
Speed
Unknown
Apparent Right ascension
Unknown
Apparent Declination
Unknown
Sunlit
N/A
Visualization observer readout
Local Sidereal Time
22:23:43
Azimuth
Unknown
Elevation
Unknown
Doppler factor
Unknown
Orbital elements
Apogee altitude
1,007.597 km
Perigee altitude
639.97 km
Semi-major axis
7,201.92 km
Eccentricity
0.02552
Inclination
98.6917°
RAAN
299.5641°
Arg. of periapsis
238.0073°
True anomaly
122.10946°
Mean anomaly
119.6069°
Eccentric anomaly
120.86219°
Mean motion
3.55116 °/min
Orbital period
101.38 mins
BSTAR
0.0054816
Loading maneuver chart data...
Computing Atmospheric mass density...

Documentation

Showing up to 5 results
|